Location: Observatoire de l'Aigle
(47.0607°N, 71.3152°W)
Time: 08:13:58
(UTC-04:00)

Daily predictions for brighter satellites

Satellite Brightness Start Highest point End
(mag) Time Altitude Azimuth Time Altitude Azimuth Time Altitude Azimuth
USA 267 4.2 20:08:04 10° SSE 20:14:18 45° SW 20:20:34 10° WNW
Cosmos 2360 Rocket 3.4 20:10:25 10° SE 20:14:21 20° E 20:18:19 10° NE
Cosmos 1980 Rocket 2.7 20:09:28 10° SW 20:15:03 67° WNW 20:20:39 10° NNE
Okean 1 4.1 20:11:11 10° NNW 20:15:06 56° W 20:19:00 10° S
Cosmos 2026 Rocket 4.2 20:08:49 10° S 20:15:11 84° W 20:21:38 10° N
Cosmos 1536 Rocket 3.6 20:10:55 10° N 20:15:14 60° ENE 20:19:30 10° SSE
Cosmos 1741 Rocket 4.1 20:11:50 10° NNW 20:17:05 68° ENE 20:22:19 10° SSE
BREEZE-M DEB (TANK) 2.4 20:15:57 10° SW 20:19:22 32° SSE 20:21:20 10° E
Lacrosse 5 rocket 3.4 20:18:56 10° W 20:21:34 19° SW 20:24:16 10° S
Envisat 3.0 20:17:14 10° SSE 20:22:17 73° ENE 20:27:23 10° N
Cosmos 1939 Rocket 3.1 20:19:43 10° SSE 20:23:33 49° ENE 20:27:21 10° N
Cosmos 1536 3.4 20:20:33 10° SSE 20:24:18 37° E 20:28:04 10° NNE
H-2A R/B 3.8 20:28:24 10° E 20:31:20 16° ENE 20:34:16 10° NNE
Meteor 2-4 Rocket 3.7 20:29:21 10° N 20:34:55 76° ENE 20:40:37 10° SSE
Cosmos 1655 Rocket 4.3 20:29:30 10° SSW 20:35:48 78° W 20:42:11 10° N
ATLAS 2AS CENTAUR R/B 3.2 20:33:39 10° S 20:41:00 50° ESE 20:48:44 10° NE
CZ-4B DEB 3.5 20:43:53 16° SE 20:45:41 30° ENE 20:48:16 10° N
BREEZE-M DEB (TANK) 3.1 20:42:58 10° SW 20:46:03 51° SE 20:54:55 10° ENE
CENTAUR R/B 4.5 20:41:19 10° NW 20:47:20 26° NNE 20:53:53 10° ENE
BREEZE M DEB (TANK) 4.0 20:36:50 10° W 20:48:03 71° N 20:51:33 10° ENE
Cosmos 1110 Rocket 4.5 20:46:08 10° SSE 20:50:50 37° ESE 20:55:35 10° NE
NOSS 2-3 (E) 3.9 20:46:38 10° SSW 20:51:19 68° SE 20:56:54 10° NE
Helios 1B rocket 2.9 20:48:59 10° NNE 20:52:51 39° E 20:56:42 10° SSE
Cosmos 883 Rocket 4.4 20:47:53 10° N 20:54:03 75° E 21:00:12 10° SSE
Cosmos 839 Rocket 4.5 20:50:31 10° SW 20:56:40 67° NW 21:03:05 10° NNE
SPOT 5 4.0 20:54:21 16° ESE 20:57:14 27° ENE 21:01:06 10° N
USA 186 3.8 20:54:31 10° SSW 20:57:32 30° W 21:00:34 10° NNW
Lacrosse 5 2.0 20:54:51 10° SSW 20:59:45 51° SE 21:04:40 10° ENE
Cosmos 1331 Rocket 4.3 20:59:03 10° S 21:03:55 43° ESE 21:08:51 10° NE
Atlas Centaur 2 4.4 20:59:10 10° WSW 21:04:30 19° SSW 21:08:53 11° SSE
SeaSat 1 2.4 21:01:17 10° NNE 21:06:15 81° ESE 21:11:12 10° SSW
SL-8 R/B 3.7 21:02:15 10° WNW 21:07:04 80° SSW 21:10:16 21° ESE
ARGOS 3.5 21:08:23 19° SE 21:12:00 49° ENE 21:17:10 10° N
Cosmos 1607 4.4 21:06:19 10° NW 21:12:41 60° WSW 21:18:19 13° SSE
SL-08 RB Rocket 4.4 21:11:29 22° ESE 21:13:49 37° ENE 21:17:58 10° N
Cosmos 220 Rocket 4.5 21:12:38 10° NNW 21:16:53 58° WSW 21:20:29 14° S
Cosmos 2263 Rocket 3.1 21:12:49 10° NW 21:18:16 47° WSW 21:23:39 10° S
Okean 1 Rocket 3.1 21:14:40 10° SSW 21:19:02 81° WNW 21:23:26 10° N
Cosmos 1025 Rocket 3.0 21:15:40 10° N 21:19:58 86° W 21:23:14 17° S
Cosmos 1300 Rocket 4.3 21:15:48 10° SSW 21:20:00 53° WNW 21:24:15 10° N
Cosmos 1743 4.5 21:21:10 16° ENE 21:21:10 16° ENE 21:23:08 10° NE
Cosmos 2278 Rocket 3.7 21:17:06 10° N 21:21:42 24° NE 21:24:48 16° E
Okean 2 3.3 21:17:56 10° N 21:22:03 87° E 21:24:46 21° S
NOSS 2-3 (C) 4.2 21:20:15 10° SW 21:25:03 73° NW 21:30:50 10° NE
Cosmos 2322 Rocket 3.0 21:19:38 10° SW 21:25:13 54° WNW 21:30:49 10° NNE
Cosmos 1844 Rocket 3.0 21:19:53 10° NNW 21:25:27 52° ENE 21:28:30 26° ESE
YAOGAN 6 3.7 21:22:15 10° S 21:25:37 40° W 21:28:58 10° NNW
Tiangong 1 3.2 21:25:30 10° SW 21:26:47 13° SSW 21:26:47 13° SSW
Okean 1-7 Rocket 3.8 21:25:02 10° NNW 21:29:32 74° W 21:32:59 17° S
Molniya-1 3.8 21:27:59 10° NW 21:30:36 59° NE 21:31:24 43° ESE
Cosmos 1818 4.3 21:29:42 26° SE 21:31:17 30° ESE 21:35:59 10° NE
Cosmos 2237 4.3 21:25:59 10° S 21:31:27 50° ESE 21:36:56 10° NE
SPOT 1/Viking Rocket 4.0 21:30:03 27° SE 21:32:28 46° ENE 21:37:27 10° N
NOSS 3-2 (A) 4.2 21:25:56 10° NW 21:33:14 64° NE 21:38:15 25° ESE
Cosmos 2266 Rocket 4.4 21:27:17 10° SSW 21:33:15 61° WNW 21:39:15 10° N
Resurs 01 Rocket 4.4 21:31:01 10° SW 21:33:44 16° W 21:36:28 10° NW
USA 238 DEB 3.8 21:28:23 10° NW 21:35:30 83° SW 21:39:58 25° SSE
USA 238 3.8 21:28:28 10° NW 21:35:36 84° SW 21:40:04 25° SSE
Cosmos 1515 3.7 21:32:10 10° NNW 21:35:58 76° W 21:37:54 28° S
Abrixas rocket 2.1 21:33:18 10° WNW 21:36:36 87° NNE 21:37:17 53° E
SL-16 R/B 3.4 21:32:04 10° SW 21:37:28 45° NW 21:42:56 10° NNE
Cosmos 2315 Rocket 4.2 21:31:21 10° NNW 21:37:34 72° W 21:43:24 12° S
Terra 3.0 21:38:02 23° E 21:39:18 26° ENE 21:43:15 10° N
YAOGAN 11 4.2 21:39:16 36° SE 21:40:43 56° ENE 21:44:58 10° N
Cosmos 1975 2.9 21:40:38 42° SE 21:41:33 52° E 21:45:27 10° NNE
MetOp-B 4.1 21:38:08 22° SSE 21:41:39 85° WSW 21:47:02 10° NNW
Cosmos 2219 Rocket 3.1 21:42:46 28° ESE 21:42:54 28° ESE 21:47:38 10° NE
EXPRESS MD2 3.7 21:40:57 10° W 21:44:06 70° N 21:50:19 10° ENE
Helios 1A 4.5 21:41:23 10° SSW 21:45:14 34° W 21:49:09 10° NNW
Meteor 1-12 Rocket 4.3 21:43:45 27° SSE 21:46:39 55° E 21:52:10 10° NNE
H-2A R/B 3.9 21:46:43 17° ENE 21:47:22 17° ENE 21:50:13 10° NNE
Cosmos 2322 3.6 21:42:55 10° SSW 21:48:36 85° ESE 21:54:19 10° NNE
ERS-1 Rocket 3.4 21:46:41 20° S 21:50:04 61° WSW 21:55:04 10° NNW
ATLAS 3B R/B 2.9 21:43:36 10° NW 21:50:14 61° WSW 21:53:56 26° SSE
Meteor 1-29 3.7 21:48:13 10° N 21:51:34 51° WNW 21:54:00 17° SW
USA 245 3.6 21:51:09 33° SSE 21:53:19 87° WSW 21:57:25 10° NNW
Cosmos 1500 3.2 21:52:07 31° SSW 21:53:51 80° W 21:57:45 10° N
Cosmos 2360 Rocket 2.5 21:52:10 10° SW 21:57:46 70° WNW 22:03:25 10° NNE
COSMOS 2428 2.7 21:55:48 22° S 21:59:30 60° ESE 22:05:09 10° NNE
Cosmos 1745 Rocket 4.0 22:01:10 35° SSE 22:03:43 61° E 22:09:47 10° NNE
Cosmos 1844 3.7 21:58:12 10° NNW 22:03:54 77° ENE 22:05:53 42° SE
Cosmos 1626 Rocket 3.8 22:01:59 10° N 22:06:10 47° ENE 22:06:21 46° E
Cosmos 1892 Rocket 4.0 22:04:30 10° NNW 22:08:53 59° W 22:10:26 37° SSW
H-2A R/B 1.9 22:08:24 42° S 22:10:09 82° WSW 22:15:09 10° NNW
Cosmos 1238 Rocket 4.3 22:05:09 10° NNW 22:11:51 66° W 22:15:42 25° SSW
NOSS 3-2 (C) 4.0 22:04:58 10° NW 22:12:24 79° NE 22:16:02 37° SE
Cosmos 2333 Rocket 2.7 22:13:04 38° E 22:13:04 38° E 22:17:58 10° NE
ATLAS CENTAUR R/B 3.5 22:14:06 10° N 22:16:11 14° NNE 22:17:03 13° NE
Cosmos 1437 Rocket 2.9 22:19:12 64° NE 22:19:12 64° NE 22:22:44 10° NNE
Cosmos 2333 4.0 22:16:47 27° SSW 22:19:57 79° ESE 22:25:35 10° NNE
Cosmos 1302 Rocket 4.2 22:19:34 16° SSW 22:23:52 71° WNW 22:29:10 10° NNE
COSMOS 2455 4.1 22:19:15 10° NNW 22:24:32 30° NE 22:26:58 23° ENE
Cosmos 1544 Rocket 3.9 22:24:21 40° SW 22:25:48 63° W 22:30:14 10° N
Cosmos 1386 Rocket 4.4 22:25:46 46° SSE 22:27:42 73° E 22:34:00 10° NNE
Cosmos 2237 Rocket 3.1 22:30:38 32° E 22:30:38 32° E 22:34:31 10° NE
Cosmos 405 4.5 22:28:30 29° WSW 22:29:30 35° WNW 22:32:51 10° N
ATLAS 2AS CENTAUR R/B 3.8 22:24:23 10° WSW 22:32:05 54° NW 22:40:05 10° NE
Cosmos 968 Rocket 4.0 22:27:11 10° NNW 22:32:06 44° ENE 22:32:33 43° ENE
GP-B 3.1 22:28:21 10° N 22:32:32 66° ENE 22:32:32 66° ENE
IGS 5A 3.5 22:33:14 72° NE 22:33:14 72° NE 22:37:10 10° N
SPOT 5 3.8 22:33:37 31° SW 22:35:10 39° W 22:39:32 10° NNW
BREEZE M DEB (TANK) 4.2 22:31:29 10° WSW 22:33:39 21° SW 22:33:39 21° SW
Cosmos 1980 4.2 22:36:43 41° E 22:36:43 41° E 22:41:15 10° NE
Cosmos 1455 Rocket 3.7 22:37:04 41° SW 22:38:14 53° WNW 22:42:38 10° N
Cosmos 1666 3.2 22:39:56 57° N 22:39:56 57° N 22:43:05 10° N
CENTAUR R/B 3.4 22:32:11 10° NW 22:39:44 57° NE 22:43:21 34° ESE
NOSS 3-4 (A) 3.4 22:41:26 56° SSE 22:42:13 61° ESE 22:48:37 10° NE
NOSS 3-4 (C) 3.4 22:41:38 57° SSE 22:42:19 60° ESE 22:48:43 10° NE
Lacrosse 5 2.9 22:37:56 10° W 22:42:49 45° NNW 22:47:43 10° NE
Aureole 2 Rocket 4.4 22:46:54 23° N 22:46:54 23° N 22:48:15 10° NNE
Cosmos 1842 3.8 22:43:50 10° N 22:46:59 55° N 22:46:59 55° N
Nadezhda 1 Rocket 4.4 22:44:44 10° NNW 22:50:56 60° W 22:53:09 39° SSW
Timation 1 Rocket 4.2 22:46:23 10° NNW 22:52:25 82° WSW 22:53:16 66° S
Cosmos 2297 4.2 22:47:54 10° NNW 22:53:23 46° NE 22:54:04 44° ENE
Cosmos 1743 3.9 22:56:17 38° WNW 22:56:17 38° WNW 22:59:45 10° N
DMSP B5D2-2 4.4 22:56:18 10° N 23:01:30 62° WNW 23:02:48 47° SW
USA 215 4.3 22:59:00 11° ENE 23:04:46 41° NNE 23:10:49 10° NW
Cosmos 2278 Rocket 2.2 23:00:40 10° NNW 23:06:21 71° WSW 23:06:39 69° SW
Cosmos 1844 Rocket 4.1 23:04:18 10° NW 23:09:03 28° WSW 23:10:09 26° WSW
Cosmos 2181 Rocket 3.9 23:03:19 10° N 23:09:48 87° ENE 23:10:38 70° SSE
Cosmos 1709 Rocket 3.9 23:10:41 68° SSW 23:11:33 87° W 23:17:51 10° N
ARGOS Delta rocket 4.0 23:07:41 10° N 23:11:45 68° NNW 23:11:45 68° NNW
ALOS 2 4.3 23:14:00 24° NE 23:14:00 24° NE 23:16:47 10° N
Cosmos 1818 4.3 23:10:06 14° WSW 23:14:37 52° NW 23:19:58 10° NNE
Terra 2.7 23:16:55 41° W 23:16:55 41° W 23:21:23 10° NNW
SL-19 R/B 4.4 23:14:53 10° NNE 23:21:15 88° WNW 23:22:01 71° SSW
H-2A R/B 2.9 23:23:50 48° NW 23:23:50 48° NW 23:27:17 10° NNW
Meteor 2-13 Rocket 4.4 23:24:09 66° E 23:24:09 66° E 23:30:08 10° NNE
CZ-2C R/B 3.8 23:19:13 10° NNE 23:22:55 33° ENE 23:22:55 33° ENE
USA 81 4.3 23:19:15 10° NNW 23:24:28 60° W 23:24:29 60° W
CZ-2C R/B 3.6 23:26:25 47° NE 23:26:25 47° NE 23:30:20 10° N
Cosmos 2219 Rocket 2.9 23:24:26 34° WSW 23:26:34 51° WNW 23:32:05 10° NNE
Cosmos 1953 Rocket 4.4 23:22:15 10° N 23:25:31 47° N 23:25:31 47° N
Cosmos 972 Rocket 4.2 23:28:17 78° W 23:28:28 79° WNW 23:34:39 10° NNE
BREEZE M DEB (TANK) 3.9 23:21:00 10° WSW 23:35:39 88° SSE 23:36:24 69° ENE
Cosmos 1777 Rocket 4.3 23:31:43 10° NNW 23:36:22 64° NNE 23:36:22 64° NNE
SL-16 R/B 3.0 23:39:45 40° ENE 23:39:45 40° ENE 23:43:37 10° NE
Meteor 1-24 Rocket 4.3 23:33:47 10° N 23:39:15 47° ENE 23:39:15 47° ENE
Meteor 2-5 Rocket 3.8 23:40:01 10° N 23:45:41 78° NE 23:45:41 78° NE
Mayak 1.3 23:44:13 10° NE 23:45:01 14° NE 23:45:01 14° NE
Cosmos 1943 Rocket 4.2 23:45:36 10° N 23:49:24 19° NE 23:51:31 15° ENE
Cosmos 2327 Rocket 4.5 23:51:19 74° ENE 23:51:19 74° ENE 23:57:22 10° NNE
ATLAS CENTAUR R/B 3.6 23:52:00 10° NW 23:53:18 21° NW 23:53:18 21° NW
